Location: Borovka
(49.7741°N, 14.5280°E)
Time: 17:01:06
(UTC+00:00)

Thor Agena Rocket - Pass Details

Date: 19 February 2026
Orbit: 755 x 801 km, 99.1° (Epoch: 8 March)

Event Time Altitude Azimuth Distance (km) Brightness Sun altitude
Rises 04:36:58 0° 25° (NNE) 3,319 7.1 -14.8°
Reaches altitude 10° 04:39:47 10° 40° (NE) 2,387 6.6 -14.4°
Maximum altitude 04:43:58 24° 92° (E) 1,632 6.2 -13.7°
Drops below altitude 10° 04:48:08 10° 145° (SE) 2,372 6.6 -13.0°
Sets 04:50:54 0° 159° (SSE) 3,295 7.1 -12.6°
